Regional Weather Roundup
Issued by NWS

Home | Current Version | Previous Version | Graphics & Text | Print | Product List | Glossary On
Versions: 1 2 3 4 5 6 7 8 9 10 11 12 13 14 15 16 17 18 19 20 21 22 23 24 25 26 27 28 29 30 31 32 33 34 35 36 37 38 39 40 41 42 43 44 45 46 47 48 49 50
000
ASUS45 KABQ 280310
RWRNM
WEATHER ROUNDUP FOR NEW MEXICO
NATIONAL WEATHER SERVICE ALBUQUERQUE NM
800 PM MST SAT DEC 27 2014

NOTE: "FAIR" MEANS FEW OR NO CLOUDS BELOW 12,000 FEET AGL WITH NO
       SIGNIFICANT WEATHER OR OBSTRUCTIONS TO VISION.

      THIS PRODUCT IS RELEASED AS TWO VERSIONS.  ONE VERSION NEAR
      THE TOP OF THE HOUR CONTAINING PRELIMINARY DATA FROM ALBUQUERQUE
      AND OTHER STATIONS.  A FINAL VERSION WITH ADDITIONAL DATA IS
      ISSUED ABOUT 10 MINUTES AFTER THE HOUR.

NMZ501-503-504-510>518-280400-
NORTHWEST PLATEAU/NORTHCENTRAL MOUNTAINS

CITY           SKY/WX    TMP DP  RH WIND       PRES   REMARKS
FARMINGTON     CLEAR     11   7  84 N5        30.30R WCI   3
LOS ALAMOS     CLEAR     22  11  60 CALM      30.19S
SANTA FE       CLEAR     16   9  74 N9        30.19R WCI   4
TAOS           PTCLDY     7   3  85 CALM      30.20R
ANGEL FIRE     FAIR      14   7  75 W14       30.14R WCI  -1

$$
NMZ402-403-502-505>509-280400-
WESTCENTRAL MOUNTAINS/SOUTHWEST MOUNTAINS

CITY           SKY/WX    TMP DP  RH WIND       PRES   REMARKS
GALLUP         CLEAR      5   0  79 CALM      30.28R
GRANTS         CLEAR     10   7  85 NW6       30.28R WCI   1
SILVER CITY    CLEAR     27  12  54 SE3       30.26R

$$
NMZ407-409-411-412-280400-
SOUTHERN DESERTS

CITY           SKY/WX    TMP DP  RH WIND       PRES   REMARKS
LORDSBURG      FAIR      30  25  80 CALM      30.26R
DEMING         CLEAR     31  25  78 SW5       30.26R WCI  26
LAS CRUCES     CLEAR     32  26  80 NW10      30.25S WCI  23
HOLLOMAN AFB   CLEAR     29  22  76 NE5       30.24R WCI  24
ALAMOGORDO     CLEAR     32  19  59 N7        30.26R WCI  26
T OR C         CLEAR     32  11  41 NW6       30.24R WCI  26

$$
NMZ519>523-280400-
CENTRAL VALLEYS/CENTRAL HIGHLANDS

CITY           SKY/WX    TMP DP  RH WIND       PRES   REMARKS
ALBUQUERQUE    CLEAR     28   7  41 N12       30.26R WCI  18
DOUBLE EAGLE   CLEAR     21   7  53 NW12      30.25R WCI   9
MORIARTY ARPT  FAIR      18   8  63 NW12      30.21S WCI   6
CLINES CORNERS CLEAR     15   4  61 W17       30.13S WCI  -1
BELEN          FAIR      21  13  71 N7        30.26R WCI  12
SOCORRO        FAIR      27  11  51 NW5       30.25R WCI  22

$$
NMZ524>526-539-540-280400-
SOUTHCENTRAL MOUNTAINS

CITY           SKY/WX    TMP DP  RH WIND       PRES   REMARKS
RUIDOSO        CLEAR     21   9  58 NW6       30.21R WCI  14

$$
NMZ527>531-280400-
NORTHEAST HIGHLANDS/NORTHEAST PLAINS

CITY           SKY/WX    TMP DP  RH WIND       PRES   REMARKS
LAS VEGAS      CLEAR     17  12  80 CALM      30.10S
RATON          PTCLDY     5   2  87 NE6       30.10F WCI  -6
CLAYTON        CLEAR     16  11  80 W7        30.14S WCI   6

$$
NMZ532>537-280400-
EASTCENTRAL PLAINS

CITY           SKY/WX    TMP DP  RH WIND       PRES   REMARKS
TUCUMCARI      CLEAR     17  13  84 CALM      30.21S
CANNON AFB     CLEAR     24  15  70 CALM      30.22S
CLOVIS AIRPORT CLEAR     18   9  68 CALM      30.22F

$$
NMZ028-029-538-280400-
SOUTHEAST PLAINS

CITY           SKY/WX    TMP DP  RH WIND       PRES   REMARKS
ROSWELL        CLEAR     25  16  68 SW7       30.26R WCI  17
ARTESIA        CLEAR     30  25  80 SW9       30.28R WCI  22
CARLSBAD       PTCLDY    32  28  85 SW7       30.28S WCI  26
HOBBS          PTCLDY    28  28 100 CALM      30.28R


$$



USA.gov is the U.S. government's official web portal to all federal, state and local government web resources and services.